Flag for Germany Weather past 2 weeks in Tuttlingen, Baden-Württemberg, Germany

Now
61 °F

Overcast.


Feels Like: 61 °F
Forecast: 51 / 65 °F
Wind: 1 mph from North

Location: Konstanz

Current Time: May 3, 2015 at 8:16:38 PM

Latest Report: May 3, 2015 at 8:00 PM


Visibility: 37 mi

Pressure: 29.76 "Hg

Humidity: 95%

Dew point: 59 °F

Location of TuttlingenLocation

Historic Weather in Tuttlingen — Graph

°F

Tuttlingen temperature yesterday

Maximum temperature yesterday: 63 °F (at 2:00 PM)
Minimum temperature yesterday: 53 °F (at 2:00 AM)
Average temperature yesterday: 57 °F

Past Weeks' High & Low Weather Summary

 TemperatureHumidityPressure
High74 °F (Apr 22, 5:00 PM)100% (May 3, 2:00 AM)30.38 "Hg (May 3, 2:00 AM)
Low38 °F (Apr 29, 4:00 AM)18% (Apr 22, 7:00 PM)29.41 "Hg (Apr 27, 6:00 PM)
Average54 °F67%29.98 "Hg
* Reported Apr 18 7:00 PM — May 3 7:00 PM, Tuttlingen, Weather by CustomWeather, © 2015

Note: Actual official high and low records may vary slightly from our data, if they occured in-between our weather recording intervals... More about our weather records

Advertising

Tuttlingen weather history for previous 24 hours

 ConditionsComfort  
Time TempWeatherWind HumidityBarometerVisibility
7:00 PM
Sun, May 3
60 °FOvercast.1 mph91%29.75 "Hg22 mi
6:00 PM62 °FOvercast.2 mph88%29.75 "Hg22 mi
5:00 PM60 °FOvercast.3 mph91%29.76 "Hg17 mi
4:00 PM58 °FLight rain. Overcast.3 mph95%29.80 "Hg17 mi
3:00 PM58 °FLight rain. Overcast.3 mph94%29.81 "Hg6 mi
2:00 PM58 °FLight rain. Low clouds.1 mph95%29.82 "Hg6 mi
1:00 PM57 °FLight rain. Low clouds.1 mph98%29.81 "Hg12 mi
12:00 PM57 °FLight rain. Low clouds.1 mph98%29.80 "Hg16 mi
11:00 AM56 °FLight rain. Low clouds.2 mph99%29.81 "Hg3 mi
10:00 AM53 °FLight rain. Low clouds.2 mph100%29.81 "Hg11 mi
9:00 AM55 °FLight rain. Low clouds.1 mph96%29.80 "Hg9 mi
8:00 AM52 °FLight rain. Low clouds.2 mph100%29.80 "Hg12 mi
7:00 AM52 °FLight rain. Low clouds.1 mph99%29.80 "Hg5 mi
6:00 AM53 °FLight rain. Low clouds.2 mph96%29.79 "Hg6 mi
5:00 AM51 °FLight rain. Overcast.2 mph100%29.79 "Hg7 mi
4:00 AM51 °FRain. Low clouds.1 mph100%29.81 "Hg3 mi
3:00 AM51 °FRain. Low clouds.2 mph100%29.80 "Hg3 mi
2:00 AM52 °FRain. Low clouds.3 mph100%29.83 "Hg2 mi
1:00 AM53 °FLight rain. Light fog.2 mph99%29.86 "Hg4 mi
12:00 AM54 °FLight rain. Passing clouds.1 mph96%29.87 "Hg12 mi
11:00 PM
Sat, May 2
54 °FLight rain. Overcast.1 mph98%29.88 "Hg14 mi
10:00 PM55 °FLight rain. Overcast.1 mph96%29.88 "Hg19 mi
9:00 PM55 °FLight rain. Overcast.2 mph95%29.88 "Hg8 mi
8:00 PM58 °FLight rain. Overcast.1 mph78%29.86 "Hg7 mi
Weather by CustomWeather, © 2015

See weather overviewHow to use our weather pages